User: anonymous   Login
Location: Boiro
(42.6475°N, 8.8834°W)
Time: 14:16:06
(UTC+02:00)
Language:

COSMOS 2251 DEB - Orbit

View from above orbital plane
View from above orbital plane
View from above satellite
View from above satellite

Ground track
Ground track

The orbit data is extracted from the following two-line orbital elements,

1 34787U 93036AAQ 23303.41920896  .07537060  11564+0  20762-1 0  9992
2 34787  73.9490 186.1628 0019637 168.6609 191.5076 15.99268724772847
Epoch (UTC): 30 October 2023 10:03:39
Eccentricity: 0.0019637
inclination: 73.9490°
perigee height: 263 km
apogee height: 289 km
right ascension of ascending node: 186.1628°
argument of perigee: 168.6609°
revolutions per day: 15.99268724
mean anomaly at epoch: 191.5076°
orbit number at epoch: 77284

The dashed part of the orbit path shows where the satellite is in the earth's shadow,  

DLR